Temp
9 10 10 10 10 10 10 9 6 8 7 6 3 4 6 9 9 9 8 8 8 8 9 9 9 9 8 8 8 9 8 7 7 7 6 6 8 8 8 8 10 5 6 6
8 9 9 10 10 10 9 9 8 7 7 5 4 6 8 8 8 9 9 8 9 9 9 9 9 9 9 9 8 8 8 8 6 8 7 7 6 8 8 6 5 8 8 8
8 8 9 9 10 10 9 9 5 6 6 7 7 8 9 9 9 8 9 8 8 8 9 8 9 8 9 9 8 8 8 6 8 8 10 8 9 9 9 9 6 7 7 8
7 7 9 9 9 10 9 9 7 7 5 6 6 8 9 9 9 8 9 9 7 7 8 8 7 7 6 9 7 8 7 8 7 8 7 9 9 9 9 10 9 10 7 8
6 7 8 9 9 10 9 10 8 7 7 8 8 7 8 9 8 8 9 8 7 6 8 7 7 6 6 7 5 6 5 7 7 9 8 7 9 7 8 9 7 6 7 9
6 7 8 8 9 9 10 9 9 9 6 5 6 6 8 8 8 8 8 7 7 7 7 7 7 7 6 6 6 5 6 5 5 10 6 8 10 9 9 9 9 7 9 8
5 6 7 8 8 9 9 10 9 8 7 5 6 7 8 7 8 8 7 7 7 7 7 7 7 7 6 6 5 4 5 4 3 4 7 9 10 7 8 9 9 8 7 5
5 5 6 7 8 9 9 9 9 9 6 6 7 8 8 7 7 7 7 7 7 7 7 5 6 5 7 7 6 6 4 4 4 5 6 8 9 8 8 10 10 8 7 6
5 5 6 7 7 8 8 9 9 9 7 7 8 8 8 5 5 5 7 7 6 7 4 5 9 8 8 9 8 5 4 3 5 5 10 12 10 9 9 9 9 7 8 6
5 5 5 6 7 7 8 8 8 9 8 8 8 7 7 8 6 5 5 6 6 6 3 6 6 7 7 8 9 9 5 4 6 5 7 8 7 8 9 11 10 8 9 9
5 5 5 5 6 6 7 7 8 8 8 7 8 8 8 7 7 6 6 6 5 3 5 5 5 5 5 6 7 8 7 6 6 4 7 10 8 8 11 9 9 10 9 9
5 5 5 5 5 5 6 7 7 7 8 7 7 7 7 7 7 7 6 6 6 6 3 2 2 5 2 5 8 6 7 6 7 6 7 8 9 10 11 11 11 10 10 10
5 5 5 5 5 5 5 6 6 7 7 6 6 6 7 7 7 7 7 6 7 6 6 4 2 5 3 5 4 6 7 5 6 7 8 7 10 11 10 10 11 11 10 10
5 5 5 5 5 5 5 5 6 6 6 5 5 5 5 6 6 6 6 6 6 6 6 5 3 5 5 4 4 4 5 5 5 4 6 7 10 10 10 10 10 10 9 9
4 5 5 5 5 5 5 5 5 5 6 5 5 5 5 5 5 5 5 5 5 6 5 3 4 4 3 2 2 3 5 5 5 6 9 9 10 10 10 10 10 9 9 8
3 3 4 4 4 4 4 4 5 5 5 5 3 3 3 3 4 4 4 4 4 5 5 4 4 4 4 2 3 6 8 9 10 9 8 8 8 9 9 9 10 9 8 7
2 3 3 4 4 4 4 4 3 4 4 5 3 2 1 1 1 2 2 2 3 4 4 2 2 3 3 1 2 8 8 8 8 9 8 8 9 9 9 9 8 8 7 6
1 2 2 3 3 3 3 3 3 2 3 4 2 1 0 0 0 1 1 2 2 2 2 2 1 2 1 1 4 8 6 7 7 7 7 7 7 7 7 7 7 6 6 5
1 1 2 2 1 2 1 2 2 2 3 2 0 2 1 -1 -0 0 0 1 -0 0 -1 -0 1 -0 0 3 4 5 5 5 5 5 5 6 6 6 6 5 5 5 5 4
-0 0 0 0 0 -0 1 1 1 1 2 1 1 1 -1 -0 -1 -1 -0 -0 -0 -1 -1 0 0 1 3 3 3 4 4 4 5 4 4 4 4 5 5 5 5 4 4 3
-1 -1 -1 -0 -0 -0 -0 -0 0 -0 0 -0 1 1 -1 0 -1 -0 0 0 -0 -0 -1 1 1 -1 1 2 2 3 4 4 4 4 4 3 3 4 4 4 3 3 3 2
-1 -1 -1 -0 -0 -0 -0 -0 -0 0 1 0 0 0 1 -0 1 0 -1 1 -0 -1 -1 0 -0 -2 1 1 2 2 3 3 3 3 3 3 4 4 4 3 3 2 2 2
-1 -1 -1 -1 -1 0 -0 -0 0 1 -1 -0 -0 -1 -0 -0 0 -0 -0 1 0 -1 -1 0 -3 0 0 -0 0 1 1 2 2 2 2 2 2 3 3 2 2 1 1 1
-1 -2 -4 -5 -4 -2 -2 -2 -1 -2 -1 -1 -0 -1 -1 -1 -0 -0 1 -1 -1 -1 -2 -3 -5 -0 0 0 1 1 2 2 2 2 1 1 1 2 2 1 1 1 1 0
-4 -3 -6 -5 -4 -3 -3 -2 -1 -1 -1 -1 -1 -1 -1 -1 0 -0 -1 -1 0 0 0 -2 1 0 0 1 1 1 1 2 2 1 1 1 1 1 1 0 0 0 0 0
-5 -4 -5 -4 -3 -4 -3 -2 -0 -0 -1 -1 -1 -0 -0 -1 -2 -1 -1 -1 -1 -2 -2 1 1 1 1 1 1 1 1 1 1 1 0 0 -0 -0 -0 -0 -0 0 -0 -0
-5 -5 -5 -5 -4 -3 -2 -1 -1 -0 0 -3 -2 -3 -2 -4 -1 -1 -2 -2 -3 0 1 1 1 1 1 1 1 1 1 1 0 -0 -0 -1 -1 -1 -1 -1 -1 -1 -1 -1
Height
1504 1504 1505 1504 1503 1501 1501 1502 1503 1502 1503 1506 1506 1504 1497 1494 1493 1493 1492 1492 1491 1489 1486 1484 1482 1482 1482 1479 1479 1478 1479 1481 1490 1490 1494 1491 1491 1491 1490 1490 1485 1503 1502 1508
1501 1501 1501 1500 1501 1499 1499 1499 1499 1501 1502 1504 1504 1497 1494 1493 1492 1491 1491 1490 1488 1486 1485 1486 1480 1479 1478 1477 1478 1478 1479 1482 1496 1492 1500 1497 1496 1485 1480 1483 1489 1490 1495 1500
1497 1497 1497 1497 1497 1497 1497 1497 1500 1499 1499 1496 1495 1494 1492 1492 1490 1490 1489 1489 1487 1486 1483 1483 1482 1481 1477 1477 1476 1477 1478 1484 1481 1483 1475 1477 1475 1474 1475 1477 1492 1490 1491 1491
1493 1494 1493 1493 1493 1494 1495 1494 1491 1491 1497 1493 1491 1491 1489 1489 1489 1489 1488 1488 1488 1490 1486 1484 1485 1483 1481 1477 1477 1476 1477 1478 1482 1479 1479 1476 1474 1474 1475 1475 1478 1479 1486 1488
1488 1490 1489 1490 1490 1490 1491 1489 1489 1489 1489 1489 1490 1490 1489 1488 1488 1488 1487 1487 1487 1487 1486 1487 1486 1486 1485 1484 1479 1479 1479 1481 1480 1475 1477 1478 1475 1479 1478 1476 1482 1486 1486 1486
1483 1484 1485 1486 1486 1486 1486 1486 1485 1486 1487 1488 1490 1488 1485 1485 1486 1486 1486 1486 1486 1485 1485 1485 1485 1485 1485 1484 1484 1483 1482 1484 1488 1477 1484 1479 1476 1475 1476 1477 1476 1481 1485 1481
1478 1479 1481 1482 1483 1483 1483 1483 1483 1483 1485 1487 1486 1483 1483 1484 1484 1484 1484 1484 1485 1485 1484 1484 1484 1483 1483 1483 1483 1483 1483 1487 1494 1498 1483 1489 1475 1475 1476 1475 1476 1476 1477 1480
1472 1474 1476 1477 1479 1480 1480 1480 1481 1480 1482 1482 1482 1482 1483 1483 1483 1483 1483 1483 1483 1483 1483 1486 1486 1488 1484 1481 1482 1481 1482 1487 1495 1494 1492 1481 1474 1476 1477 1474 1476 1477 1478 1481
1467 1470 1472 1473 1475 1476 1477 1477 1478 1478 1478 1479 1479 1481 1481 1483 1484 1484 1482 1482 1482 1482 1483 1486 1482 1485 1481 1480 1480 1482 1483 1484 1487 1494 1478 1471 1473 1472 1471 1471 1482 1474 1475 1479
1462 1465 1467 1469 1472 1473 1474 1475 1476 1476 1476 1476 1478 1479 1480 1480 1481 1482 1481 1481 1481 1481 1485 1488 1489 1486 1485 1484 1480 1478 1487 1490 1488 1491 1486 1479 1472 1471 1471 1475 1483 1471 1474 1477
1456 1460 1463 1466 1468 1470 1471 1473 1473 1475 1474 1475 1475 1477 1478 1478 1479 1481 1481 1483 1481 1483 1485 1487 1489 1490 1489 1488 1481 1479 1481 1487 1488 1493 1484 1479 1468 1471 1471 1471 1468 1469 1472 1475
1451 1455 1458 1462 1465 1467 1469 1471 1471 1472 1474 1475 1474 1475 1476 1477 1478 1479 1479 1481 1479 1479 1484 1488 1489 1487 1491 1488 1481 1479 1482 1478 1479 1480 1476 1466 1466 1466 1466 1467 1468 1469 1471 1474
1446 1450 1454 1458 1461 1463 1466 1468 1469 1470 1471 1472 1473 1473 1474 1475 1476 1477 1479 1479 1478 1478 1478 1480 1483 1485 1485 1485 1487 1478 1474 1475 1477 1474 1467 1465 1465 1465 1466 1467 1468 1469 1471 1473
1442 1446 1450 1454 1458 1461 1463 1465 1468 1470 1470 1470 1471 1470 1471 1472 1473 1475 1476 1477 1478 1479 1479 1479 1481 1483 1480 1481 1480 1481 1475 1475 1474 1475 1466 1464 1463 1463 1464 1465 1466 1468 1469 1470
1437 1442 1446 1451 1454 1458 1461 1463 1465 1467 1471 1470 1469 1469 1469 1470 1471 1472 1474 1476 1477 1478 1480 1480 1481 1478 1479 1479 1479 1477 1467 1467 1472 1469 1461 1462 1462 1463 1463 1464 1464 1465 1467 1468
1433 1438 1442 1447 1452 1455 1458 1462 1463 1464 1466 1469 1469 1468 1466 1467 1468 1470 1472 1473 1475 1477 1478 1478 1476 1475 1477 1480 1478 1458 1458 1458 1460 1460 1460 1460 1461 1461 1462 1462 1462 1463 1464 1466
1432 1436 1441 1444 1448 1452 1457 1458 1458 1460 1464 1466 1466 1464 1465 1465 1466 1469 1471 1472 1473 1476 1477 1477 1476 1476 1475 1476 1473 1453 1456 1458 1459 1459 1458 1455 1456 1456 1457 1457 1458 1460 1462 1463
1435 1436 1439 1443 1447 1450 1452 1453 1457 1459 1462 1464 1463 1462 1466 1465 1466 1468 1470 1471 1473 1474 1475 1475 1475 1475 1475 1473 1452 1450 1453 1454 1453 1454 1455 1454 1454 1453 1453 1454 1455 1457 1459 1460
1433 1436 1440 1443 1445 1447 1448 1451 1454 1456 1462 1458 1457 1457 1462 1464 1465 1466 1469 1470 1473 1474 1473 1474 1475 1473 1470 1456 1454 1453 1452 1452 1451 1450 1450 1451 1450 1450 1451 1452 1453 1455 1456 1457
1436 1441 1443 1442 1443 1446 1450 1451 1452 1453 1454 1455 1454 1455 1461 1463 1463 1466 1468 1468 1471 1475 1473 1472 1472 1466 1457 1456 1454 1451 1448 1447 1446 1445 1445 1447 1447 1448 1449 1450 1451 1452 1454 1455
1437 1439 1440 1441 1443 1446 1448 1448 1450 1449 1450 1450 1450 1452 1455 1459 1460 1461 1464 1465 1469 1472 1472 1471 1467 1465 1457 1455 1451 1449 1447 1445 1444 1443 1442 1443 1444 1445 1446 1447 1448 1450 1451 1452
1436 1439 1441 1443 1441 1444 1446 1445 1446 1446 1445 1446 1448 1449 1451 1455 1456 1457 1462 1463 1467 1469 1469 1470 1467 1462 1458 1454 1450 1447 1446 1443 1442 1441 1441 1442 1442 1442 1443 1444 1446 1448 1449 1451
1438 1440 1441 1441 1443 1442 1443 1442 1441 1441 1443 1444 1446 1448 1449 1452 1454 1456 1459 1460 1463 1466 1468 1464 1466 1460 1458 1455 1451 1449 1447 1445 1443 1443 1444 1443 1443 1442 1442 1444 1445 1447 1449 1451
1439 1441 1444 1446 1447 1444 1443 1444 1443 1444 1444 1443 1444 1445 1447 1449 1451 1453 1454 1461 1463 1466 1469 1469 1461 1457 1455 1453 1450 1448 1447 1446 1445 1444 1444 1444 1444 1443 1443 1443 1445 1447 1449 1451
1441 1443 1449 1447 1446 1446 1446 1445 1445 1445 1444 1444 1444 1444 1446 1447 1449 1450 1456 1460 1456 1455 1457 1460 1457 1456 1454 1452 1450 1448 1447 1446 1445 1444 1444 1444 1444 1445 1445 1446 1447 1448 1449 1451
1444 1445 1446 1446 1446 1447 1447 1448 1448 1447 1446 1445 1445 1444 1446 1447 1448 1450 1451 1454 1455 1458 1458 1456 1455 1454 1452 1451 1449 1448 1447 1445 1444 1444 1444 1444 1445 1446 1446 1447 1447 1448 1449 1449
1445 1446 1447 1448 1449 1449 1450 1451 1450 1450 1449 1450 1450 1451 1451 1451 1449 1449 1450 1454 1456 1455 1455 1455 1454 1452 1450 1449 1447 1447 1445 1444 1443 1443 1443 1443 1444 1446 1446 1447 1449 1448 1446 1446
Wind_Speed
14 12 11 10 8 7 5 4 0 6 8 2 2 2 4 1 3 3 3 2 4 4 3 3 2 2 3 2 2 1 0 3 4 6 5 6 2 5 6 4 2 2 2 3
15 13 11 9 8 5 5 4 4 7 10 2 3 4 3 3 2 3 1 3 4 1 3 3 1 2 1 2 1 1 2 1 2 3 4 3 7 7 4 4 3 3 4 4
16 14 11 9 7 6 5 4 1 4 9 5 4 3 3 3 4 3 3 3 2 2 2 1 3 4 2 3 2 0 2 2 2 5 2 1 3 3 2 2 3 4 4 5
17 14 11 9 6 6 6 6 4 4 3 4 3 3 2 2 2 2 1 1 2 2 3 3 3 2 6 2 8 2 2 1 2 0 2 1 1 2 3 2 3 3 6 6
19 16 12 8 6 6 9 5 4 4 2 2 3 1 4 4 2 2 2 2 2 2 2 1 2 2 3 1 5 4 4 1 2 3 4 5 3 3 5 3 4 8 7 3
23 19 14 9 6 6 7 7 6 3 1 2 3 4 4 5 3 2 2 2 1 2 2 2 3 3 4 2 2 3 2 3 2 2 4 5 3 4 2 2 1 7 5 6
22 19 15 11 7 6 8 8 7 5 3 3 4 4 4 5 3 3 3 2 3 1 2 6 4 4 3 1 1 1 1 3 2 2 3 2 3 1 1 2 2 3 3 6
21 18 15 12 9 7 7 6 6 5 2 3 1 4 3 2 2 2 3 3 2 1 1 2 2 3 2 1 1 1 1 4 3 2 2 4 1 2 4 4 1 4 6 6
23 18 14 13 10 8 6 5 5 4 5 5 2 4 5 3 2 2 2 2 2 0 2 3 1 1 1 2 3 2 3 4 3 1 1 0 2 2 3 2 3 8 10 9
25 20 15 14 11 8 6 5 5 4 3 5 5 3 3 4 2 1 2 2 2 1 2 2 1 2 1 1 2 1 2 3 2 1 1 5 5 3 1 3 5 9 15 17
28 22 18 15 12 9 7 6 5 5 2 5 6 5 4 3 3 2 3 2 1 2 2 2 2 2 2 2 3 3 3 3 2 2 2 3 7 3 4 4 2 11 14 17
27 23 21 18 14 10 7 6 5 5 4 2 6 7 7 6 4 2 5 2 1 3 4 0 2 1 0 2 3 0 2 4 3 6 4 3 12 2 5 2 6 10 14 15
23 20 21 20 16 13 10 7 6 5 3 4 6 7 9 8 9 8 3 3 3 2 2 5 2 2 4 2 4 1 2 2 1 3 2 7 11 15 13 7 7 9 12 13
22 20 20 21 16 14 11 8 7 7 2 1 2 5 5 6 9 10 10 4 4 3 3 1 2 2 4 3 2 2 3 4 3 4 8 8 13 14 12 12 10 11 13 13
20 20 21 19 20 17 13 11 9 10 5 1 1 3 7 8 8 8 10 9 6 3 1 1 3 2 2 0 1 3 9 6 4 5 4 3 6 5 4 6 9 16 17 15
16 17 21 20 18 14 11 5 12 13 10 3 1 3 6 8 8 10 9 10 9 4 3 3 3 2 2 2 3 7 15 13 12 8 7 6 9 9 10 12 12 14 15 13
15 18 18 18 18 16 12 4 3 14 13 4 1 2 1 4 5 5 5 8 4 5 3 3 2 3 3 2 3 4 3 5 11 14 16 14 13 10 8 10 12 13 13 12
8 11 14 15 14 18 13 9 5 2 11 6 2 1 1 6 4 3 5 5 5 4 2 2 2 2 1 4 17 23 15 12 9 6 10 17 18 18 15 12 14 15 13 11
6 7 12 10 8 4 6 7 7 7 9 3 3 4 3 8 4 4 4 4 2 1 1 2 3 2 4 4 8 12 13 15 22 21 15 13 12 10 10 13 14 13 12 12
9 9 5 4 4 5 2 2 5 7 6 5 3 5 3 7 4 2 4 2 2 2 2 3 2 3 11 11 13 15 12 11 11 12 12 10 10 9 10 12 12 12 11 11
11 5 3 7 10 7 4 3 4 5 2 6 5 11 4 7 3 3 3 2 2 2 3 3 2 3 3 17 18 11 10 13 13 13 13 11 9 9 11 12 12 10 10 10
7 8 10 9 3 3 3 3 2 3 3 5 5 4 4 6 4 4 5 3 2 4 6 2 3 3 14 20 18 13 10 9 7 3 2 3 4 5 6 9 9 8 9 10
9 3 4 1 1 4 4 3 1 2 3 5 5 2 6 5 4 3 2 4 3 12 2 3 3 7 16 17 15 11 9 7 6 4 3 5 5 4 5 7 9 9 10 11
2 2 3 2 2 2 2 1 1 3 3 2 6 5 3 3 3 2 3 2 3 2 2 3 3 12 16 18 16 14 12 9 7 6 6 5 4 5 7 9 10 11 11 10
3 2 1 0 2 2 3 7 6 8 9 1 2 3 4 1 3 1 3 3 3 3 2 2 7 10 15 20 20 17 14 11 9 7 6 4 5 6 8 10 11 10 7 6
3 2 2 2 2 2 8 14 11 13 7 5 4 1 1 1 2 2 4 4 4 1 2 4 10 13 15 19 20 18 15 12 10 7 6 5 6 8 8 9 8 6 6 6
2 3 2 2 1 0 1 2 4 9 8 1 2 3 2 3 1 2 2 3 3 2 5 10 13 15 18 20 20 17 16 12 9 7 7 8 9 9 7 6 7 7 5 6
Wind_Direction
244 248 258 272 289 313 226 198 190 191 180 157 240 217 205 245 269 214 263 232 236 245 278 276 309 302 221 340 286 247 224 144 144 181 163 215 282 245 210 161 194 93 113 275
233 234 241 258 274 293 229 211 171 183 184 200 241 266 265 237 225 230 244 262 224 290 277 314 263 279 237 303 87 303 7 340 106 43 109 216 216 204 191 93 80 184 126 232
221 221 227 242 262 280 220 195 149 183 211 242 184 206 240 256 225 241 226 263 304 324 274 21 317 337 348 354 1 186 143 112 190 193 217 138 193 176 130 149 101 169 203 151
212 214 220 232 246 261 209 209 232 185 218 251 200 176 220 229 251 219 201 208 65 285 298 326 1 329 331 350 6 79 67 184 119 154 320 310 20 151 170 105 139 123 168 117
209 211 211 222 241 236 213 226 183 185 206 200 173 226 223 208 211 217 217 195 313 14 238 251 307 332 38 329 328 32 351 271 48 2 6 28 90 93 119 95 112 77 109 111
209 208 207 207 229 224 219 221 209 189 184 163 124 224 200 213 173 218 209 224 232 270 232 222 271 288 283 287 326 325 41 117 67 308 358 346 341 208 179 136 147 142 155 203
212 206 202 199 206 223 224 225 197 177 236 173 211 193 189 191 211 201 206 203 180 206 275 293 272 276 252 287 4 129 93 87 68 218 5 10 266 78 210 159 179 183 111 148
211 210 197 196 197 203 206 213 205 194 192 195 225 180 181 157 207 217 217 215 203 246 11 52 27 340 334 248 300 360 98 119 79 112 181 280 159 202 157 173 225 188 128 130
208 211 198 195 194 194 202 203 201 201 144 232 173 168 191 188 217 316 232 216 181 163 88 74 66 226 255 303 347 122 77 65 115 132 53 284 250 238 222 205 357 194 167 168
208 210 214 204 196 197 201 211 211 199 201 184 179 177 190 177 163 186 274 190 181 175 85 87 138 284 200 299 284 231 4 7 111 121 182 286 233 207 188 97 224 176 190 182
210 216 219 216 202 202 205 214 212 208 214 193 202 205 189 184 192 164 162 79 262 48 84 132 194 175 255 327 243 201 192 140 193 110 68 320 175 136 163 209 196 177 182 182
213 222 216 214 216 210 213 221 217 214 215 199 214 224 224 223 226 215 188 271 198 182 89 159 111 214 97 166 286 77 287 185 191 180 216 275 200 202 205 223 186 186 191 185
214 217 215 210 214 211 213 217 217 209 221 250 226 226 232 236 230 228 223 232 226 213 178 153 156 226 132 206 244 272 272 176 213 21 281 240 243 239 243 247 221 207 205 207
219 220 209 202 206 210 216 224 215 213 211 189 232 219 216 229 234 231 227 236 204 188 189 129 145 203 190 221 217 195 219 136 190 265 279 268 262 248 260 237 228 214 215 229
199 202 200 198 208 213 214 228 224 212 212 194 217 253 237 228 234 234 224 214 203 195 176 118 230 216 160 169 62 235 185 195 166 235 229 244 285 307 233 244 251 235 231 224
188 183 189 196 199 203 209 214 235 222 212 235 293 242 231 230 230 229 219 209 209 201 209 228 240 228 197 168 236 255 210 225 246 274 302 294 292 288 278 276 264 238 224 226
161 170 182 190 199 199 189 179 151 206 190 193 285 236 228 197 177 173 178 183 181 192 208 229 252 217 217 164 239 206 170 247 267 275 284 284 289 281 292 265 244 227 222 232
148 160 167 172 185 197 193 196 247 353 182 187 210 175 218 180 166 154 160 160 176 198 210 208 208 193 202 253 245 266 292 312 308 301 281 269 275 280 271 242 225 219 231 234
137 124 152 159 185 142 129 180 200 220 201 224 188 158 211 165 142 132 139 162 133 203 204 238 161 205 226 252 320 311 317 312 296 297 288 282 280 277 254 233 225 225 229 240
149 161 159 141 146 181 250 295 173 189 202 226 214 157 178 166 157 138 131 142 143 183 238 150 198 258 287 322 334 313 310 317 314 294 290 283 265 249 233 229 234 242 243 237
146 153 140 155 169 136 174 202 205 178 209 200 203 189 143 185 136 148 177 149 138 179 250 184 222 271 303 341 345 342 320 312 305 288 281 268 267 267 253 235 229 233 229 217
142 140 144 181 187 129 186 190 194 200 209 182 166 166 154 151 155 117 173 168 153 228 153 187 246 263 346 346 342 344 345 345 345 329 267 240 247 260 232 218 220 211 196 186
127 130 148 158 148 181 207 206 168 176 162 174 167 138 155 138 155 132 150 171 195 133 157 224 225 325 351 357 359 3 358 356 1 349 313 285 272 242 214 204 191 186 181 176
82 46 64 85 342 352 26 104 20 2 0 157 153 133 146 149 154 143 142 96 128 171 213 236 252 345 2 11 9 4 4 360 348 327 303 288 249 209 189 181 181 176 172 171
68 33 88 201 24 21 33 40 56 37 31 128 133 126 168 143 124 131 101 150 206 202 166 224 327 351 359 4 5 1 355 347 334 322 305 280 246 217 191 172 169 173 186 213
57 55 42 7 46 58 86 86 54 34 25 40 25 27 70 268 132 143 191 155 199 174 207 325 353 357 358 352 350 348 342 335 325 307 283 247 214 196 187 185 194 210 242 267
31 353 314 311 274 316 95 103 40 17 21 74 36 28 45 335 294 194 112 153 175 196 23 5 356 349 344 340 339 337 331 324 311 289 257 226 213 208 211 235 254 261 263 280